Location: ?????
(32.7281°N, 34.9563°E)
Time: 01:30:23
(UTC+00:00)

Cosmos 1400 Rocket - Pass Details

Date: 29 October 2020
Orbit: 521 x 568 km, 81.2° (Epoch: 25 November)

Event Time Altitude Azimuth Distance (km) Brightness Sun altitude
Rises 15:26:44 0° 191° (S) 2,751 6.7 -8.0°
Reaches altitude 10° 15:28:55 10° 193° (SSW) 1,856 5.8 -8.4°
Maximum altitude 15:33:00 73° 278° (W) 593 3.2 -9.3°
Drops below altitude 10° 15:37:05 10° 4° (N) 1,853 5.4 -10.1°
Sets 15:39:16 0° 6° (N) 2,745 6.2 -10.6°
